Torna al catalogo

CZ-6A DEB

AttivoPO
NORAD 60664·DEBRIS·🇨🇳 China

Lanciato Aug 6, 2024 da Taiyuan Satellite Launch Center

Loading…

Prossimi Passaggi (prossime 24 ore)

TLE

AggiornatoSource: Space-Track

Epoca: Sep 14, 2026, 00:44 UTC

1 60664U 24140BR  26257.03116482  .00000652  00000-0  14078-3 0  9996
2 60664  89.0329 263.3767 0111003 326.5487  32.8741 14.53418687111184

Traccia CZ-6A DEB in tempo reale con AllMySat

Download on the App Store